[[{"header":{"parameterUnit":"m.s-1","parameterCategory":1,"la1":30.2991,"la2":30.254,"lo1":-89.0895,"lo2":-89.0444,"dy":0.0017,"dx":0.0017,"nx":28,"ny":28,"refTime":"2024-07-27T21:00:00:Z","depth":0,"parameterNumber":2,"parameterNumberName":"U-component_of_WINDS"},"data":[0,0,0,0,0,0,0,0,0,0,0,0,0,0,0,0,0,0,0,0,0,0,0,0,0,0,0,0,0,0,0,0,0,0,0,0,0,0,0,0,0,0,0,0,0,0,0,0,0,0,0,0,0,0,0,0,0,0,1.4169,1.4169,0,1.414,1.4139,1.4139,1.4085,1.4083,1.4082,1.4081,1.405,1.4051,1.4051,0,0,0,0,0,0,0,0,0,0,0,0,0,1.4177,1.4177,1.4169,1.4169,1.4169,1.414,1.4139,1.4139,1.4085,1.4083,1.4082,1.4081,1.405,1.4051,1.4051,0,0,0,0,0,0,0,0,0,0,0,0,0,1.4163,1.4177,1.417,1.4138,1.4135,1.414,1.4139,1.4139,1.4085,1.4083,1.4082,1.408,1.405,1.4051,1.4051,1.4083,0,0,1.4051,1.4051,0,0,0,0,0,0,0,0,1.4164,1.4163,1.4143,1.414,1.4137,1.4114,1.413,1.412,1.4085,1.4104,1.4081,1.408,1.4073,1.4071,1.4069,1.4082,1.4081,1.4051,1.4052,1.4052,1.4052,0,0,0,0,0,0,0,1.4165,1.4164,1.4158,1.4143,1.4139,1.4125,1.4121,1.4128,1.4098,1.4102,1.4098,1.4095,1.4071,1.4069,1.4068,1.408,1.4051,1.4052,1.4052,1.4052,1.4114,1.4115,0,0,0,0,0,0,1.4171,1.4165,1.4159,1.4157,1.4147,1.4126,1.4122,1.4123,1.4097,1.4092,1.4097,1.4093,1.4069,1.4068,1.4067,1.41,1.4052,1.4052,1.4052,1.4112,1.4114,1.4116,0,0,0,0,0,0,1.4171,1.4171,1.416,1.416,1.4157,1.4127,1.4129,1.4123,1.4121,1.4093,1.4087,1.4101,1.4068,1.4066,1.4079,1.4098,1.4052,1.4052,1.4111,1.4113,1.4115,1.4169,0,0,0,0,0,0,1.4171,1.4171,1.4184,1.416,1.4157,1.4173,1.4131,1.4124,1.4122,1.4117,1.4095,1.409,1.4067,1.4079,1.4079,1.4097,1.4052,1.4109,1.4112,1.4114,1.4165,1.4173,1.4179,0,0,0,0,0,1.4172,1.4201,1.4185,1.4184,1.4173,1.4175,1.4173,1.4145,1.4124,1.4135,1.4117,1.4091,1.4096,1.408,1.408,1.4099,1.4107,1.4111,1.4114,1.4162,1.4171,1.4179,0,0,0,0,0,0,1.4228,1.4198,1.4179,1.4202,1.4191,1.4166,1.418,1.4157,1.4152,1.4147,1.4113,1.4109,1.4125,1.4113,1.4096,1.4127,1.4097,1.4101,1.4134,1.4142,1.4149,1.4151,1.4052,0,0,0,0,0,1.4243,1.4248,1.4221,1.4243,1.4239,1.421,1.421,1.4189,1.4177,1.4172,1.4155,1.4143,1.4142,1.4142,1.4139,1.4164,1.4156,1.4176,1.4183,1.4189,1.4192,1.42,1.4208,1.4127,1.4127,1.4127,0,0,1.4275,1.4258,1.4263,1.4254,1.4243,1.4247,1.4207,1.4214,1.4216,1.4173,1.4183,1.417,1.4154,1.4172,1.4179,1.4163,1.4213,1.4194,1.4198,1.4198,1.4205,1.4212,1.4219,1.4129,1.4129,1.4129,0,0,1.4333,1.4322,1.4338,1.4328,1.4311,1.4292,1.4296,1.4273,1.4262,1.4272,1.4239,1.424,1.424,1.4229,1.4224,1.4275,1.4249,1.4275,1.4311,1.4319,1.4325,1.4331,1.4346,1.4352,1.4278,1.4279,1.4279,0,1.4373,1.4379,1.4349,1.4357,1.4352,1.4313,1.4328,1.4319,1.4303,1.43,1.4283,1.4279,1.4267,1.4279,1.4291,1.4289,1.429,1.4277,1.4327,1.4332,1.4337,1.4351,1.4357,1.4282,1.4281,1.4281,1.4281,0,1.4427,1.4431,1.4446,1.443,1.4428,1.4439,1.441,1.441,1.439,1.4371,1.438,1.4363,1.4354,1.4356,1.4337,1.4365,1.4355,1.4334,1.4302,1.4348,1.436,1.4366,1.4286,1.4285,1.4284,1.4283,0,0,1.4521,1.4487,1.4492,1.4483,1.4462,1.4463,1.4472,1.4463,1.4463,1.4453,1.4457,1.4457,1.4435,1.4429,1.4407,1.4415,1.4453,1.4391,1.4391,1.4401,1.4479,1.4494,1.4501,1.4436,1.4437,1.4438,1.4479,0,1.4572,1.4584,1.4557,1.4575,1.4576,1.4539,1.4545,1.4532,1.4515,1.4513,1.4494,1.4492,1.4466,1.4461,1.4467,1.4447,1.4467,1.4444,1.4438,1.4438,1.444,1.4508,1.4524,1.4564,1.4484,1.4485,1.4486,0,1.4634,1.4625,1.4644,1.4617,1.4617,1.4624,1.4612,1.4611,1.4594,1.4581,1.4573,1.4547,1.4552,1.4523,1.4527,1.4512,1.4508,1.4497,1.4498,1.4495,1.4463,1.4503,1.4576,1.4581,1.4494,1.4493,1.4492,0,1.4696,1.4689,1.4698,1.4692,1.4663,1.4668,1.4656,1.4638,1.4633,1.4623,1.4619,1.461,1.4604,1.4597,1.4569,1.4551,1.4575,1.4545,1.4562,1.4563,1.4568,1.4567,1.4638,1.457,1.4569,1.4569,1.4569,0,1.4754,1.4766,1.4725,1.4731,1.4742,1.471,1.4721,1.4706,1.4689,1.4689,1.4657,1.4658,1.4622,1.4618,1.4597,1.4601,1.46,1.4588,1.4581,1.4589,1.4591,1.4585,1.458,1.4571,1.4571,1.457,1.457,0,1.4825,1.4798,1.4805,1.4776,1.4769,1.4779,1.4753,1.4756,1.4736,1.4737,1.4735,1.4704,1.4698,1.467,1.4658,1.4643,1.4654,1.4643,1.4659,1.4655,1.4672,1.467,1.474,1.4746,1.4676,1.4677,1.4678,0,1.4863,1.4871,1.4842,1.484,1.4829,1.4827,1.4821,1.4789,1.4785,1.4764,1.4769,1.476,1.4751,1.4743,1.4719,1.4708,1.4695,1.472,1.4693,1.47,1.4692,1.4691,1.469,1.4726,1.4727,1.4727,1.4728,0,1.4932,1.4918,1.4912,1.49,1.4894,1.4884,1.4871,1.4871,1.4835,1.4832,1.4824,1.4817,1.4803,1.4794,1.4779,1.4765,1.474,1.4737,1.4739,1.4746,1.4754,1.4747,1.4672,1.4735,1.4734,1.4734,1.4733,1.4733,1.4985,1.4989,1.4969,1.4962,1.4949,1.4937,1.4938,1.4917,1.4911,1.4896,1.4878,1.4873,1.4853,1.483,1.4818,1.4812,1.4798,1.4803,1.4804,1.4805,1.4808,1.4757,1.481,1.4809,1.4809,1.4809,1.4809,0,1.505,1.5035,1.5029,1.5011,1.5005,1.4982,1.4966,1.4962,1.4958,1.4942,1.4933,1.4923,1.4913,1.4887,1.4875,1.4875,1.4862,1.4872,1.4871,1.4867,1.4822,1.482,1.4882,1.4882,1.4882,1.4882,1.4882,1.4882,1.5083,1.5087,1.507,1.5067,1.5051,1.5045,1.5037,1.5026,1.5012,1.5002,1.4994,1.4977,1.4956,1.4941,1.493,1.4923,1.4918,1.4931,1.492,1.4878,1.4871,1.4864,1.4861,1.4931,1.4931,1.4964,1.4965,1.4965]},{"header":{"parameterUnit":"m.s-1","parameterCategory":1,"la1":30.2991,"la2":30.254,"lo1":-89.0895,"lo2":-89.0444,"dy":0.0017,"dx":0.0017,"nx":28,"ny":28,"refTime":"2024-07-27T21:00:00:Z","depth":0,"parameterNumber":3,"parameterNumberName":"V-component_of_WINDS"},"data":[0,0,0,0,0,0,0,0,0,0,0,0,0,0,0,0,0,0,0,0,0,0,0,0,0,0,0,0,0,0,0,0,0,0,0,0,0,0,0,0,0,0,0,0,0,0,0,0,0,0,0,0,0,0,0,0,0,0,3.8398,3.8399,0,3.8513,3.8514,3.8515,3.8496,3.8494,3.8492,3.849,3.8601,3.8606,3.8611,0,0,0,0,0,0,0,0,0,0,0,0,0,3.8151,3.8156,3.8397,3.8399,3.84,3.8513,3.8514,3.8516,3.8496,3.8494,3.8491,3.8489,3.8599,3.8605,3.8611,0,0,0,0,0,0,0,0,0,0,0,0,0,3.8262,3.8158,3.8397,3.8404,3.8406,3.8512,3.8514,3.8516,3.8497,3.8494,3.8491,3.8488,3.8598,3.8605,3.8612,3.8716,0,0,3.8634,3.8637,0,0,0,0,0,0,0,0,3.8255,3.8271,3.8402,3.8404,3.8406,3.8487,3.8468,3.8583,3.8497,3.8462,3.849,3.8486,3.8565,3.8575,3.8603,3.8721,3.8726,3.8634,3.8639,3.8642,3.8644,0,0,0,0,0,0,0,3.8248,3.8265,3.8443,3.8404,3.8406,3.8399,3.8411,3.849,3.8529,3.8465,3.8464,3.8478,3.8566,3.8596,3.8605,3.8728,3.8634,3.8641,3.8645,3.8648,3.8934,3.8937,0,0,0,0,0,0,3.8239,3.8259,3.8439,3.8446,3.8322,3.8406,3.8419,3.8464,3.8528,3.8535,3.848,3.8477,3.8585,3.8597,3.8609,3.8733,3.8642,3.8649,3.8653,3.8931,3.8935,3.8938,0,0,0,0,0,0,3.8234,3.8255,3.8435,3.8353,3.8375,3.8413,3.8463,3.8468,3.8498,3.854,3.8546,3.8505,3.8583,3.8599,3.8689,3.8737,3.8652,3.8658,3.8927,3.8932,3.8936,3.8984,0,0,0,0,0,0,3.8227,3.8254,3.8296,3.8354,3.8379,3.8516,3.8466,3.8472,3.8511,3.8508,3.8564,3.8571,3.8582,3.8679,3.8697,3.8745,3.8664,3.8923,3.8929,3.8935,3.8978,3.899,3.9,0,0,0,0,0,3.8218,3.8304,3.8298,3.832,3.8433,3.8519,3.8533,3.8546,3.8516,3.8557,3.8583,3.8569,3.8729,3.8688,3.8708,3.876,3.892,3.8927,3.8934,3.8973,3.8987,3.8999,0,0,0,0,0,0,3.8249,3.8312,3.8306,3.8414,3.8461,3.8515,3.8568,3.8561,3.8617,3.8611,3.8623,3.8635,3.8727,3.8752,3.8706,3.8862,3.882,3.8831,3.8842,3.8856,3.8867,3.8858,3.867,0,0,0,0,0,3.8268,3.8335,3.8385,3.8475,3.8499,3.853,3.8567,3.8573,3.8622,3.8641,3.8674,3.872,3.878,3.882,3.8878,3.8982,3.8992,3.9027,3.9038,3.9046,3.9056,3.9109,3.9124,3.8962,3.8962,3.8962,0,0,3.8309,3.8351,3.8392,3.8482,3.852,3.8585,3.8546,3.8618,3.8666,3.8651,3.8739,3.8765,3.8816,3.8913,3.8957,3.8937,3.9103,3.9056,3.9062,3.9067,3.9118,3.9134,3.9147,3.8967,3.8966,3.8966,0,0,3.8416,3.8456,3.8534,3.8573,3.863,3.865,3.8668,3.8723,3.874,3.8829,3.8818,3.8874,3.8979,3.9015,3.9047,3.9165,3.9153,3.9184,3.9239,3.9291,3.9304,3.9315,3.9355,3.937,3.9193,3.9193,3.9193,0,3.8458,3.8559,3.8574,3.8647,3.8685,3.8677,3.8754,3.879,3.8862,3.8888,3.8864,3.8994,3.9028,3.9132,3.9161,3.9188,3.9207,3.9177,3.9302,3.9313,3.9324,3.9362,3.9377,3.9196,3.9196,3.9196,3.9195,0,3.8607,3.8677,3.8732,3.8805,3.8849,3.8924,3.8947,3.899,3.8991,3.9012,3.91,3.9141,3.9206,3.9231,3.9233,3.9334,3.932,3.9299,3.9256,3.9342,3.9378,3.9393,3.9201,3.92,3.9199,3.9198,0,0,3.8737,3.8816,3.8836,3.8867,3.8929,3.8982,3.9054,3.912,3.9155,3.9205,3.9264,3.9351,3.9332,3.9369,3.9374,3.9421,3.9508,3.9394,3.9395,3.9412,3.9619,3.9633,3.965,3.9501,3.9504,3.9506,3.9614,0,3.8848,3.8978,3.8993,3.9108,3.9171,3.9163,3.9225,3.9268,3.9289,3.9343,3.9364,3.9426,3.9397,3.9419,3.9464,3.9488,3.9549,3.9481,3.9553,3.9555,3.9539,3.9669,3.9684,3.9784,3.9628,3.963,3.9632,0,3.8995,3.9051,3.9173,3.9224,3.9251,3.9307,3.9367,3.942,3.9467,3.9478,3.9518,3.9518,3.9588,3.9544,3.964,3.9593,3.9623,3.9638,3.9643,3.9648,3.9598,3.9676,3.9816,3.9831,3.9655,3.9653,3.9651,0,3.9075,3.918,3.9266,3.9293,3.9356,3.9395,3.9422,3.9467,3.9505,3.9556,3.9579,3.9638,3.9669,3.9712,3.9726,3.9693,3.982,3.9778,3.9829,3.9829,3.9856,3.9853,4.0001,3.9878,3.9878,3.9878,3.9877,0,3.9196,3.927,3.9302,3.9355,3.9436,3.9451,3.953,3.9555,3.9595,3.9649,3.9645,3.9696,3.9712,3.9765,3.9776,3.9852,3.9866,3.9875,3.9877,3.9875,3.9874,3.9894,3.9886,3.9882,3.9881,3.988,3.9879,0,3.9298,3.9323,3.9416,3.9468,3.9482,3.954,3.9582,3.9631,3.9651,3.972,3.9737,3.9767,3.9828,3.9847,3.992,3.9927,4.0016,4.0012,4.0001,4.0,4.005,4.0044,4.0214,4.0236,4.0101,4.0102,4.0103,0,3.9374,3.9431,3.9489,3.9526,3.9556,3.9616,3.9654,3.967,3.9709,3.9766,3.9808,3.9869,3.9919,4.0017,4.0044,4.0099,4.0095,4.0151,4.0104,4.0099,4.0093,4.0089,4.0094,4.0159,4.0161,4.0162,4.0163,0,3.9504,3.9513,3.957,3.963,3.9676,3.9724,3.977,3.98,3.9822,3.9866,3.993,3.9969,4.0044,4.0104,4.016,4.0185,4.0176,4.0178,4.0192,4.019,4.018,4.0184,4.0023,4.0174,4.0173,4.0172,4.0171,4.0171,3.9593,3.9643,3.9691,3.9753,3.979,3.9832,3.988,3.9906,3.996,4.0024,4.0029,4.0098,4.014,4.0215,4.0243,4.0295,4.0278,4.03,4.0305,4.0309,4.0312,4.0173,4.0305,4.0305,4.0304,4.0304,4.0304,0,3.9721,3.9752,3.9809,3.9874,3.9922,3.9913,3.9962,4.0002,4.0063,4.0105,4.0154,4.0226,4.0284,4.0315,4.0371,4.0406,4.0403,4.042,4.0417,4.0422,4.0325,4.0306,4.0421,4.0421,4.0421,4.0421,4.0421,4.0421,3.9793,3.9875,3.989,3.9988,4.0017,4.0086,4.0115,4.0153,4.0186,4.0267,4.0316,4.0336,4.0372,4.0431,4.0482,4.0489,4.0509,4.0528,4.0532,4.0441,4.0429,4.0418,4.04,4.0532,4.0533,4.0625,4.0626,4.0626]}]]